Location: Igon
(43.1667°N, 0.2333°W)
Time: 14:59:49
(UTC+00:00)

COSMO-SKYMED 1 - Pass Details

Date: 29 November 2020
Orbit: 621 x 623 km, 97.9° (Epoch: 23 January)

Event Time Altitude Azimuth Distance (km) Brightness Sun altitude
Rises 04:57:47 0° 158° (SSE) 2,889 6.4 -23.7°
Reaches altitude 10° 04:59:58 10° 156° (SSE) 1,988 5.5 -23.3°
Maximum altitude 05:04:15 66° 75° (ENE) 684 2.9 -22.6°
Enters shadow 05:07:20 19° 356° (N) 1,509 4.4 -22.0°
